Regional Weather Roundup
Issued by NWS Goodland, KS

Home | Current Version | Previous Version | Graphics & Text | Print | Product List | Glossary On
Versions: 1 2 3 4 5 6 7 8 9 10 11 12 13 14 15 16 17 18 19 20 21 22 23 24 25 26 27 28 29 30 31 32 33 34 35 36 37 38 39 40 41 42 43 44 45 46 47 48 49 50
000
ASUS43 KGLD 242008
RWRGLD

GOODLAND FORECAST AREA HOURLY WEATHER ROUNDUP
NATIONAL WEATHER SERVICE GOODLAND KS
100 PM MST FRI NOV 24 2017

...OFFICIAL OBSERVATIONS...

CITY           SKY/WX    TMP DP  RH WIND       PRES   REMARKS
GOODLAND KS    CLOUDY    70  33  25 N12       29.78S
HILL CITY KS   CLOUDY    80  34  19 N29G46    29.70R
IMPERIAL NEB   SUNNY     70  34  26 N20G31    29.79R
MCCOOK NEB     CLOUDY    67  37  33 N23G32    29.75R
AKRON CO       CLOUDY    64  31  28 N23G33    29.85S
BURLINGTON CO  CLOUDY    69  32  25 N9        29.81S
LIMON CO       CLOUDY    68  24  19 N17       29.86S
$$

...UNOFFICIAL OBSERVATIONS...

CITY           SKY/WX    TMP DP  RH WIND       PRES   REMARKS
COLBY KS       MOSUNNY   72  37  28 N26G33    29.77S
LENORA KS        N/A     75  32  20 N15         N/A
NORTON KS      SUNNY     70  28  21 N23G35    29.72
SHARON SPRINGS   N/A     70  37  29 NE6         N/A
KIT CARSON CO    N/A     73  30  20 MISG        N/A
YUMA CO        FAIR      64  21  19 N24       29.82S
$$




USA.gov is the U.S. government's official web portal to all federal, state and local government web resources and services.